[[{"header":{"parameterUnit":"m.s-1","parameterCategory":1,"la1":30.2991,"la2":30.254,"lo1":-89.0895,"lo2":-89.0444,"dy":0.0017,"dx":0.0017,"nx":28,"ny":28,"refTime":"2023-08-18T21:00:00:Z","depth":0,"parameterNumber":2,"parameterNumberName":"U-component_of_WINDS"},"data":[0,0,0,0,0,0,0,0,0,0,0,0,0,0,0,0,0,0,0,0,0,0,0,0,0,0,0,0,0,0,0,0,0,0,0,0,0,0,0,0,0,0,0,0,0,0,0,0,0,0,0,0,0,0,0,0,0,0,-0.1571,-0.1569,0,-0.1405,-0.1403,-0.1401,-0.1347,-0.1347,-0.1348,-0.1349,-0.1174,-0.1169,-0.1164,0,0,0,0,0,0,0,0,0,0,0,0,0,-0.1837,-0.1832,-0.1571,-0.1569,-0.1567,-0.1405,-0.1403,-0.1401,-0.1347,-0.1348,-0.1348,-0.1349,-0.1176,-0.117,-0.1163,0,0,0,0,0,0,0,0,0,0,0,0,0,-0.1701,-0.1831,-0.1571,-0.152,-0.1514,-0.1406,-0.1403,-0.14,-0.1346,-0.1348,-0.1349,-0.135,-0.1178,-0.117,-0.1163,-0.1091,0,0,-0.1138,-0.1135,0,0,0,0,0,0,0,0,-0.1709,-0.1691,-0.153,-0.1524,-0.1516,-0.1398,-0.1433,-0.1296,-0.1346,-0.141,-0.1349,-0.135,-0.1247,-0.1234,-0.12,-0.1083,-0.1076,-0.1137,-0.1133,-0.1129,-0.1127,0,0,0,0,0,0,0,-0.1718,-0.1698,-0.1505,-0.1528,-0.1519,-0.1505,-0.1487,-0.1407,-0.1324,-0.1404,-0.14,-0.1382,-0.1244,-0.1208,-0.1196,-0.1073,-0.1138,-0.1131,-0.1126,-0.1123,-0.089,-0.0888,0,0,0,0,0,0,-0.1737,-0.1706,-0.151,-0.15,-0.1617,-0.1499,-0.1479,-0.1435,-0.1325,-0.131,-0.1381,-0.138,-0.1221,-0.1205,-0.1189,-0.11,-0.1129,-0.1122,-0.1117,-0.0891,-0.0889,-0.0888,0,0,0,0,0,0,-0.1743,-0.172,-0.1517,-0.1602,-0.1575,-0.1493,-0.1444,-0.1431,-0.1395,-0.1307,-0.1292,-0.1359,-0.1221,-0.1201,-0.1117,-0.1093,-0.1118,-0.1111,-0.0893,-0.0891,-0.0889,-0.0919,0,0,0,0,0,0,-0.1751,-0.1722,-0.1695,-0.1602,-0.1571,-0.1448,-0.1443,-0.1427,-0.1382,-0.1379,-0.1283,-0.1268,-0.1221,-0.1129,-0.1109,-0.1082,-0.1105,-0.0895,-0.0892,-0.0889,-0.092,-0.0918,-0.0917,0,0,0,0,0,-0.176,-0.1709,-0.1694,-0.1671,-0.1535,-0.1447,-0.1429,-0.1377,-0.138,-0.1352,-0.1296,-0.1271,-0.1099,-0.1121,-0.1097,-0.1068,-0.0896,-0.0893,-0.089,-0.0921,-0.0919,-0.0917,0,0,0,0,0,0,-0.18,-0.1696,-0.1678,-0.1595,-0.1531,-0.1438,-0.1401,-0.1376,-0.1308,-0.1308,-0.1244,-0.1223,-0.1144,-0.1097,-0.1124,-0.0994,-0.0996,-0.0988,-0.1027,-0.1025,-0.1024,-0.1037,-0.1098,0,0,0,0,0,-0.18,-0.1738,-0.1649,-0.1585,-0.1554,-0.1483,-0.1442,-0.1408,-0.1337,-0.1309,-0.1247,-0.1178,-0.1109,-0.1064,-0.0995,-0.0913,-0.0891,-0.0881,-0.088,-0.0879,-0.0873,-0.0827,-0.0822,-0.0878,-0.0878,-0.0878,0,0,-0.1797,-0.1733,-0.1697,-0.1591,-0.1537,-0.1474,-0.146,-0.1393,-0.1345,-0.1298,-0.1216,-0.1168,-0.1087,-0.1005,-0.0965,-0.0963,-0.0853,-0.0875,-0.0875,-0.0869,-0.0823,-0.0818,-0.0814,-0.0876,-0.0876,-0.0876,0,0,-0.1761,-0.1706,-0.1647,-0.1593,-0.1512,-0.1465,-0.1451,-0.1362,-0.1329,-0.1246,-0.121,-0.1151,-0.1032,-0.0977,-0.0933,-0.0877,-0.0852,-0.0855,-0.0848,-0.0804,-0.08,-0.0796,-0.0777,-0.077,-0.085,-0.085,-0.085,0,-0.1768,-0.1673,-0.1619,-0.1555,-0.1509,-0.1466,-0.1405,-0.1355,-0.1255,-0.1224,-0.1224,-0.1075,-0.1017,-0.0921,-0.0908,-0.0874,-0.0855,-0.0866,-0.0805,-0.08,-0.0796,-0.0777,-0.0769,-0.0851,-0.0851,-0.0851,-0.0851,0,-0.1686,-0.162,-0.1582,-0.1489,-0.1438,-0.1376,-0.1312,-0.1268,-0.1238,-0.1191,-0.1107,-0.1036,-0.0953,-0.0927,-0.0896,-0.0827,-0.0829,-0.0818,-0.0819,-0.0792,-0.0773,-0.0766,-0.0852,-0.0852,-0.0852,-0.0851,0,0,-0.1671,-0.1549,-0.1536,-0.1493,-0.1401,-0.1348,-0.1284,-0.1204,-0.1167,-0.1099,-0.1044,-0.0945,-0.0935,-0.0885,-0.0847,-0.0808,-0.077,-0.0802,-0.0799,-0.0799,-0.069,-0.07,-0.0692,-0.0753,-0.0751,-0.075,-0.0697,0,-0.1623,-0.1508,-0.1458,-0.1365,-0.1304,-0.1262,-0.1206,-0.1143,-0.1097,-0.1038,-0.0987,-0.0918,-0.0909,-0.0879,-0.0839,-0.0783,-0.0747,-0.0786,-0.07,-0.0698,-0.0723,-0.0682,-0.0692,-0.0646,-0.069,-0.0688,-0.0687,0,-0.1553,-0.1487,-0.1389,-0.1305,-0.1277,-0.1227,-0.1151,-0.1094,-0.1022,-0.0991,-0.0937,-0.0901,-0.0831,-0.0837,-0.074,-0.0767,-0.0729,-0.0696,-0.0693,-0.0684,-0.0692,-0.0673,-0.063,-0.0623,-0.0675,-0.0676,-0.0677,0,-0.1553,-0.1439,-0.1366,-0.1331,-0.123,-0.1197,-0.1153,-0.1081,-0.1037,-0.0969,-0.0939,-0.0864,-0.0823,-0.0765,-0.071,-0.0718,-0.0618,-0.0618,-0.0591,-0.0592,-0.0572,-0.0574,-0.0523,-0.0546,-0.0546,-0.0546,-0.0546,0,-0.1506,-0.1448,-0.1365,-0.132,-0.1253,-0.1196,-0.1131,-0.1084,-0.1021,-0.0966,-0.0924,-0.0873,-0.0803,-0.0742,-0.0698,-0.0625,-0.0606,-0.0579,-0.0569,-0.0584,-0.0587,-0.0558,-0.056,-0.0544,-0.0545,-0.0545,-0.0545,0,-0.1495,-0.1437,-0.1355,-0.1267,-0.1243,-0.1198,-0.1123,-0.1077,-0.103,-0.0961,-0.0941,-0.0866,-0.0793,-0.0733,-0.0636,-0.0606,-0.053,-0.0517,-0.0556,-0.055,-0.0526,-0.053,-0.0455,-0.0443,-0.0474,-0.0474,-0.0474,0,-0.1469,-0.1424,-0.1332,-0.1292,-0.125,-0.1186,-0.1141,-0.1083,-0.1037,-0.0952,-0.0917,-0.0841,-0.0777,-0.0662,-0.0599,-0.0525,-0.051,-0.0489,-0.0499,-0.0516,-0.0511,-0.0515,-0.051,-0.0489,-0.0489,-0.0489,-0.0489,0,-0.143,-0.1404,-0.1341,-0.1269,-0.1216,-0.1156,-0.1094,-0.1064,-0.0994,-0.0945,-0.0871,-0.0822,-0.0724,-0.065,-0.0569,-0.0523,-0.0494,-0.0486,-0.0476,-0.0491,-0.0516,-0.0503,-0.0555,-0.0488,-0.0488,-0.0488,-0.0488,-0.0488,-0.1411,-0.1369,-0.1298,-0.123,-0.1178,-0.1121,-0.1075,-0.1023,-0.096,-0.0877,-0.0846,-0.077,-0.0699,-0.0588,-0.0542,-0.0481,-0.0477,-0.0462,-0.0458,-0.0456,-0.0459,-0.0526,-0.0466,-0.0466,-0.0466,-0.0466,-0.0466,0,-0.1371,-0.1324,-0.1261,-0.1177,-0.1123,-0.1102,-0.1033,-0.0989,-0.0924,-0.086,-0.0799,-0.0714,-0.0641,-0.0573,-0.0497,-0.0462,-0.0447,-0.0444,-0.0446,-0.0436,-0.0466,-0.0483,-0.0457,-0.0457,-0.0457,-0.0457,-0.0457,-0.0457,-0.1344,-0.1272,-0.1238,-0.1139,-0.1092,-0.1018,-0.0981,-0.0928,-0.0877,-0.0785,-0.0725,-0.0682,-0.0616,-0.0535,-0.0468,-0.0449,-0.0424,-0.0425,-0.0403,-0.0432,-0.0434,-0.0435,-0.0451,-0.0419,-0.0419,-0.0378,-0.0378,-0.0378]},{"header":{"parameterUnit":"m.s-1","parameterCategory":1,"la1":30.2991,"la2":30.254,"lo1":-89.0895,"lo2":-89.0444,"dy":0.0017,"dx":0.0017,"nx":28,"ny":28,"refTime":"2023-08-18T21:00:00:Z","depth":0,"parameterNumber":3,"parameterNumberName":"V-component_of_WINDS"},"data":[0,0,0,0,0,0,0,0,0,0,0,0,0,0,0,0,0,0,0,0,0,0,0,0,0,0,0,0,0,0,0,0,0,0,0,0,0,0,0,0,0,0,0,0,0,0,0,0,0,0,0,0,0,0,0,0,0,0,3.6146,3.6145,0,3.6059,3.6058,3.6057,3.5996,3.5995,3.5995,3.5995,3.59,3.5898,3.5896,0,0,0,0,0,0,0,0,0,0,0,0,0,3.6255,3.6253,3.6147,3.6145,3.6144,3.6059,3.6058,3.6057,3.5996,3.5995,3.5995,3.5994,3.59,3.5898,3.5895,0,0,0,0,0,0,0,0,0,0,0,0,0,3.6192,3.6253,3.6147,3.6104,3.6099,3.606,3.6058,3.6057,3.5996,3.5995,3.5995,3.5994,3.5901,3.5898,3.5895,3.589,0,0,3.5886,3.5884,0,0,0,0,0,0,0,0,3.6195,3.6188,3.6111,3.6107,3.6101,3.6038,3.6062,3.6001,3.5996,3.6035,3.5995,3.5994,3.5946,3.5939,3.5924,3.5885,3.5881,3.5885,3.5883,3.5882,3.5881,0,0,0,0,0,0,0,3.62,3.6191,3.6112,3.611,3.6104,3.6087,3.6077,3.605,3.5995,3.6032,3.6027,3.6018,3.5943,3.5927,3.5921,3.588,3.5885,3.5883,3.5881,3.5879,3.583,3.5831,0,0,0,0,0,0,3.6212,3.6195,3.6115,3.6109,3.6148,3.6086,3.6075,3.6059,3.5995,3.5985,3.6018,3.6015,3.5933,3.5925,3.5918,3.5906,3.5882,3.5879,3.5877,3.583,3.583,3.5831,0,0,0,0,0,0,3.6214,3.6205,3.6118,3.6151,3.6139,3.6085,3.6067,3.6057,3.6042,3.5986,3.5975,3.6013,3.5932,3.5922,3.5897,3.5902,3.5878,3.5875,3.5829,3.583,3.5831,3.5883,0,0,0,0,0,0,3.6217,3.6206,3.6205,3.6151,3.6137,3.6101,3.6067,3.6056,3.6037,3.6032,3.5977,3.5967,3.5931,3.5902,3.5894,3.5897,3.5872,3.5828,3.5829,3.583,3.588,3.5885,3.589,0,0,0,0,0,3.6222,3.6222,3.6205,3.6196,3.6135,3.6101,3.6093,3.6052,3.6038,3.6035,3.5999,3.5969,3.5903,3.59,3.589,3.5892,3.5828,3.5829,3.583,3.5878,3.5884,3.5889,0,0,0,0,0,0,3.6276,3.6214,3.6195,3.6179,3.6146,3.6091,3.6086,3.606,3.6029,3.6025,3.5974,3.5963,3.5942,3.5915,3.5913,3.5883,3.5862,3.5861,3.5901,3.5907,3.5911,3.5917,3.587,0,0,0,0,0,3.6286,3.6266,3.6213,3.6203,3.6188,3.614,3.6124,3.6096,3.6059,3.6044,3.6006,3.597,3.5941,3.5922,3.5893,3.5877,3.5863,3.5873,3.5878,3.5882,3.5881,3.5869,3.5872,3.5835,3.5835,3.5835,0,0,3.6307,3.6271,3.6261,3.6213,3.6185,3.6163,3.6129,3.6107,3.609,3.604,3.6014,3.5985,3.5941,3.5921,3.591,3.5897,3.5889,3.5884,3.5887,3.5884,3.5871,3.5874,3.5877,3.5836,3.5836,3.5836,0,0,3.6333,3.6305,3.6293,3.6265,3.6223,3.6191,3.6188,3.6138,3.6117,3.6091,3.6052,3.603,3.5982,3.5951,3.593,3.5945,3.5916,3.5937,3.596,3.5948,3.5951,3.5953,3.5957,3.5959,3.5937,3.5937,3.5937,0,3.6363,3.633,3.629,3.6271,3.625,3.6206,3.6193,3.6167,3.6117,3.6103,3.609,3.6028,3.5995,3.5966,3.597,3.5954,3.5948,3.5941,3.5954,3.5956,3.5958,3.596,3.5962,3.5939,3.5939,3.5939,3.5938,0,3.6368,3.6346,3.6342,3.6296,3.6275,3.6259,3.6214,3.6198,3.6171,3.614,3.6113,3.6073,3.6034,3.6025,3.5998,3.5991,3.5985,3.5964,3.5941,3.5965,3.5966,3.5967,3.5943,3.5942,3.5941,3.5941,0,0,3.6424,3.6357,3.6356,3.6334,3.6284,3.6265,3.6247,3.621,3.6196,3.6162,3.6144,3.6104,3.6085,3.606,3.603,3.602,3.6032,3.6,3.5998,3.6006,3.602,3.6034,3.6036,3.6014,3.6014,3.6014,3.6023,0,3.6441,3.6407,3.637,3.6348,3.6325,3.6284,3.6267,3.6234,3.6205,3.618,3.6147,3.6119,3.6097,3.6081,3.607,3.6033,3.6034,3.6033,3.5993,3.5992,3.6004,3.6037,3.6052,3.6063,3.6023,3.6023,3.6023,0,3.6455,3.6425,3.6402,3.6353,3.6343,3.6329,3.6292,3.627,3.623,3.621,3.6183,3.6151,3.6127,3.6109,3.6074,3.6074,3.6056,3.6035,3.6035,3.6028,3.6008,3.6029,3.6065,3.6066,3.6024,3.6024,3.6024,0,3.6496,3.645,3.6429,3.6412,3.6356,3.6347,3.6322,3.6283,3.6263,3.623,3.6216,3.6181,3.6161,3.6133,3.6091,3.6082,3.606,3.6039,3.604,3.6041,3.6035,3.6036,3.6067,3.6028,3.6028,3.6028,3.6028,0,3.6517,3.6503,3.6447,3.6434,3.6417,3.6374,3.6358,3.633,3.6295,3.6274,3.6236,3.6217,3.6165,3.6139,3.6107,3.6082,3.6073,3.6054,3.6045,3.6056,3.6059,3.6042,3.604,3.6028,3.6028,3.6028,3.6028,0,3.6558,3.652,3.6495,3.6444,3.6431,3.6421,3.6376,3.6361,3.6331,3.6305,3.6296,3.6247,3.6215,3.6172,3.6125,3.6103,3.6082,3.6069,3.6095,3.609,3.6093,3.6092,3.6113,3.6112,3.6076,3.6076,3.6076,0,3.6573,3.6562,3.6511,3.6495,3.6473,3.6448,3.6428,3.6386,3.6366,3.632,3.631,3.6276,3.6245,3.6195,3.6154,3.6118,3.6103,3.6113,3.6097,3.6108,3.6101,3.6101,3.6099,3.6116,3.6116,3.6117,3.6117,0,3.6603,3.6585,3.6558,3.6525,3.6503,3.6474,3.6444,3.6433,3.6383,3.6363,3.6331,3.6307,3.6261,3.6226,3.6185,3.6157,3.6128,3.6123,3.6121,3.6131,3.6146,3.6136,3.6104,3.6122,3.6122,3.6121,3.6121,3.6121,3.6629,3.6617,3.658,3.6551,3.6524,3.6497,3.648,3.6448,3.6421,3.6381,3.6357,3.6325,3.6285,3.6227,3.6201,3.6174,3.6163,3.616,3.6159,3.6159,3.6162,3.6153,3.6167,3.6166,3.6166,3.6166,3.6166,0,3.6655,3.663,3.6604,3.6564,3.6541,3.6519,3.6483,3.6465,3.6438,3.6405,3.6376,3.6338,3.6304,3.6261,3.6224,3.621,3.6196,3.6202,3.6201,3.6195,3.6175,3.618,3.6214,3.6214,3.6214,3.6214,3.6214,3.6214,3.6666,3.6644,3.6622,3.6585,3.6559,3.6529,3.6511,3.6484,3.6457,3.6417,3.639,3.6363,3.6324,3.6284,3.6251,3.6239,3.6226,3.6235,3.6219,3.6201,3.6196,3.6192,3.6196,3.6233,3.6233,3.624,3.6241,3.6241]}]]